Starlink 3625

operational
NORAD ID: 51777 Int'l Des: 2022-017 Owner: SPXS Country: US Constellation: starlink
LEOCIRCULAR

About Starlink 3625

Description loading...

Live Position

Loading 3D Globe...

Upcoming Passes

Altitude History

Altitude vs Time

uPlot chart will show altitude changes over time

Two-Line Element Set

1 51777U 22017K 25259.11968568 .00001319 00000-0 10094-3 0 9997
2 51777 53.2183 42.7657 0001225 80.0065 280.1065 15.08845497196246
Epoch: Sep 16, 2025 • Age: 8 hours

Current Status

Altitude 539.7 km
Velocity 7.59 km/s
Sub-Earth Point 7.14°N, 111.94°W
Launch Date Feb 25, 2022
Age 3.5 years
Type internet

Technical Details

Classification Payload
Mass 297.00 kg
Dry Mass 275.00 kg
Total Mass 297.00 kg
Length 0.20 m
Diameter 2.80 m
Span 9.00 m
Shape Box + pan
Manufacturer SPXS
Bus Type Starlink
Phase Status In Orbit
Owner/State SPXS/US

Large Constellations

Loading constellations...